Weather History for Fryeburg, ME

Change the Weather History Date:

Thursday, January 3, 2013

  Actual Average Record
Temperature  
Mean Temperature 3 °F -  
Max Temperature 19 °F 29 °F 57 °F (2000)
Min Temperature -13 °F 10 °F -24 °F (2014)
Degree Days  
Heating Degree Days 62    
Moisture  
Dew Point -8 °F    
Average Humidity 64    
Maximum Humidity 90    
Minimum Humidity 38    
Precipitation  
Precipitation 0.00 in - - ()
Sea Level Pressure  
Sea Level Pressure 30.04 in    
Wind  
Wind Speed 1 mph (NNW)    
Max Wind Speed 5 mph    
Max Gust Speed -    
Visibility 10 miles    
Events      
Averages and records for this station are not official NWS values.
T = Trace of Precipitation, MM = Missing Value Source: NWS Daily Summary

Daily Weather History Graph

Daily Weather History Graph

Search for Another Location

Airport:

Trip Planner

Search our weather history database for the weather conditions in past years. The results will help you decide how hot, cold, wet, or windy it might be!

Date:

Astronomy

Jan. 03, 2013 Rise Set
Actual Time 7:18 AM EST 4:18 PM EST
Civil Twilight 6:45 AM EST 4:51 PM EST
Nautical Twilight 6:09 AM EST 5:27 PM EST
Astronomical Twilight 5:34 AM EST 6:02 PM EST
Moon 11:05 PM EST (1/3) 10:14 AM EST (1/3)
Length of Visible Light 10h 05m
Length of Day
9h 00m
Waning Gibbous, 65% of the Moon is Illuminated
Jan 3
Waning Gibbous
Jan 4
Last Quarter
Jan 11
New
Jan 18
First Quarter
Jan 26
Full

Hourly Weather History & Observations

Time (EST) Temp. Windchill Dew Point Humidity Pressure Visibility Wind Dir Wind Speed Gust Speed Precip Events Conditions
12:54 AM -0.0 °F -7.9 °F -11.9 °F 57% 30.06 in 10.0 mi East 3.5 mph - N/A   Clear
1:54 AM -6.0 °F - -14.1 °F 68% 30.08 in 10.0 mi Calm Calm - N/A   Clear
2:54 AM -2.0 °F -10.1 °F -11.0 °F 66% 30.09 in 10.0 mi NW 3.5 mph - N/A   Clear
3:54 AM -9.9 °F - -15.0 °F 78% 30.09 in 10.0 mi Calm Calm - N/A   Clear
4:54 AM -11.9 °F - -16.1 °F 82% 30.09 in 10.0 mi Calm Calm - N/A   Clear
5:54 AM -13.0 °F - -17.0 °F 82% 30.09 in 10.0 mi Calm Calm - N/A   Clear
6:54 AM -13.0 °F - -18.0 °F 78% 30.10 in 10.0 mi Calm Calm - N/A   Clear
7:54 AM -13.0 °F - -18.0 °F 78% 30.12 in 10.0 mi Calm Calm - N/A   Clear
8:54 AM -2.9 °F - -9.0 °F 75% 30.11 in 10.0 mi Calm Calm - N/A   Clear
9:54 AM 5.0 °F - -5.1 °F 63% 30.10 in 10.0 mi Calm Calm - N/A   Clear
10:54 AM 12.0 °F - -5.1 °F 46% 30.07 in 10.0 mi Calm Calm - 0.00 in   Clear
11:54 AM 15.1 °F 9.4 °F -2.9 °F 45% 30.04 in 10.0 mi East 3.5 mph - 0.00 in   Clear
12:54 PM 19.0 °F - -2.0 °F 40% 30.01 in 10.0 mi Calm Calm - 0.00 in   Clear
1:54 PM 19.0 °F - -2.0 °F 40% 30.01 in 10.0 mi Calm Calm - 0.00 in   Clear
2:54 PM 19.9 °F - -2.0 °F 38% 29.98 in 10.0 mi Calm Calm - 0.00 in   Clear
3:54 PM 19.0 °F - -2.9 °F 38% 29.98 in 10.0 mi Calm Calm - 0.00 in   Clear
4:54 PM 14.0 °F - -2.0 °F 49% 29.98 in 10.0 mi Calm Calm - N/A   Mostly Cloudy
5:54 PM 8.1 °F 1.4 °F -4.0 °F 58% 30.00 in 10.0 mi WNW 3.5 mph - N/A   Clear
6:54 PM 3.9 °F -3.4 °F -5.1 °F 66% 30.00 in 10.0 mi Variable 3.5 mph - N/A   Clear
7:54 PM 3.9 °F -5.3 °F -5.1 °F 66% 30.01 in 10.0 mi South 4.6 mph - N/A   Clear
8:54 PM 6.1 °F - -2.0 °F 69% 29.99 in 10.0 mi Calm Calm - N/A   Clear
9:54 PM 3.9 °F - -2.9 °F 73% 29.98 in 10.0 mi Calm Calm - N/A   Clear
10:54 PM -2.9 °F -11.2 °F -5.1 °F 90% 29.96 in 10.0 mi NW 3.5 mph - N/A   Clear
11:54 PM -0.9 °F - -5.1 °F 83% 29.94 in 10.0 mi Calm Calm - N/A   Clear